{"data":{"norad_id":67385,"intl_designator":"2026-004Y","name":"CAPELLA-18 (ACADIA-8)","alt_names":[],"object_type":"PAYLOAD","status":"ACTIVE","operator":null,"country":"US","launch_date":"2026-01-11","launch_site_code":"AFWTR","launch_vehicle":null,"mission":null,"orbit_class":"UNKNOWN","rcs_meters":null,"size_class":null,"mass_kg":null,"dimensions":null,"purposes":[],"wikipedia_slug":null,"has_3d_model":false,"image_url":null,"decayed_at":null,"tle_current":{"epoch":"2026-05-24T23:42:44.479584Z","epoch_age_seconds":79252,"freshness":"FRESH","line1":"1 67385U 26004Y   26144.98801481  .00001430  00000+0  16713-3 0  9995","line2":"2 67385  97.7970 143.9332 0001908 105.1049 255.0378 14.86640635 19837","mean_motion":14.86640635,"eccentricity":0.0001908,"inclination_deg":97.797,"raan_deg":143.9332,"arg_perigee_deg":105.1049,"mean_anomaly_deg":255.0378,"bstar":0.00016713,"rev_number":1983,"period_min":96.862682621345,"perigee_km":607.10790302243,"apogee_km":609.77398116513,"semimajor_km":6986.5779420938,"source":"CELESTRAK","updated_at":"2026-05-25T13:38:06.932975Z"}}}